| time (UTC) | temp C | wind direction | speed KPH | gust KPH | rain 1hr cm | rain 24hr cm | rain mn cm | humidity % | barometer mb |
| 20260505184544 | 10 | 352 | 1.6 | 9.7 | 0.00 | 0.00 | 0.00 | 78 | 1015.2 |
| 20260505183038 | 10 | 329 | 1.6 | 9.7 | 0.00 | 0.00 | 0.00 | 77 | 1015.1 |
| 20260505181529 | 10 | 24 | 3.2 | 17.7 | 0.00 | 0.00 | 0.00 | 77 | 1015.1 |
| 20260505180035 | 10 | 270 | 4.8 | 16.1 | 0.00 | 0.00 | 0.00 | 76 | 1015.1 |
| 20260505174530 | 11 | 71 | 4.8 | 16.1 | 0.00 | 0.00 | 0.00 | 75 | 1015.1 |
| 20260505173033 | 11 | 333 | 1.6 | 9.7 | 0.00 | 0.00 | 0.00 | 74 | 1015.3 |
| 20260505171532 | 11 | 16 | 3.2 | 12.9 | 0.00 | 0.00 | 0.00 | 73 | 1015.3 |
| 20260505170036 | 11 | 350 | 3.2 | 16.1 | 0.00 | 0.00 | 0.00 | 74 | 1015.2 |
| 20260505164535 | 11 | 57 | 3.2 | 9.7 | 0.00 | 0.00 | 0.00 | 75 | 1015.3 |
| 20260505163034 | 11 | 32 | 3.2 | 9.7 | 0.00 | 0.00 | 0.00 | 76 | 1015.3 |
| 20260505161530 | 11 | 47 | 3.2 | 11.3 | 0.00 | 0.00 | 0.00 | 75 | 1015.5 |
| 20260505153036 | 11 | 341 | 4.8 | 14.5 | 0.00 | 0.00 | 0.00 | 71 | 1015.4 |
| 20260505151543 | 11 | 19 | 4.8 | 14.5 | 0.00 | 0.00 | 0.00 | 71 | 1015.3 |
| 20260505124535 | 11 | 67 | 4.8 | 16.1 | 0.00 | 0.00 | 0.00 | 72 | 1015.8 |
| 20260505123029 | 11 | 5 | 4.8 | 17.7 | 0.00 | 0.00 | 0.00 | 72 | 1015.8 |
| 20260505121536 | 11 | 10 | 4.8 | 17.7 | 0.00 | 0.00 | 0.00 | 71 | 1015.7 |
| 20260505120035 | 11 | 60 | 8.0 | 22.5 | 0.00 | 0.00 | 0.00 | 69 | 1015.6 |
| 20260505114530 | 12 | 342 | 4.8 | 12.9 | 0.00 | 0.00 | 0.00 | 66 | 1015.8 |
| 20260505113040 | 11 | 80 | 6.4 | 19.3 | 0.00 | 0.00 | 0.00 | 67 | 1015.6 |
| 20260505111540 | 12 | 43 | 9.7 | 19.3 | 0.00 | 0.00 | 0.00 | 64 | 1015.7 |
| 20260505101534 | 11 | 23 | 6.4 | 17.7 | 0.00 | 0.00 | 0.00 | 67 | 1016.1 |
| 20260505100028 | 11 | 291 | 3.2 | 14.5 | 0.00 | 0.00 | 0.00 | 68 | 1016.0 |
| 20260505094530 | 11 | 328 | 6.4 | 16.1 | 0.00 | 0.00 | 0.00 | 66 | 1016.0 |
| 20260505093045 | 12 | 119 | 6.4 | 19.3 | 0.00 | 0.00 | 0.00 | 65 | 1016.0 |
| 20260505091533 | 12 | 109 | 4.8 | 14.5 | 0.00 | 0.00 | 0.00 | 68 | 1016.1 |
| 20260505090032 | 11 | 11 | 4.8 | 14.5 | 0.00 | 0.00 | 0.00 | 69 | 1016.0 |
| 20260505084531 | 11 | 34 | 4.8 | 19.3 | 0.00 | 0.00 | 0.00 | 67 | 1016.2 |
| 20260505083031 | 11 | 94 | 6.4 | 16.1 | 0.00 | 0.00 | 0.00 | 68 | 1016.1 |
| 20260505081533 | 11 | 348 | 6.4 | 22.5 | 0.00 | 0.00 | 0.00 | 69 | 1016.3 |
| 20260505080035 | 11 | 59 | 4.8 | 16.1 | 0.00 | 0.00 | 0.00 | 69 | 1016.3 |
| 20260505074530 | 10 | 28 | 6.4 | 12.9 | 0.00 | 0.00 | 0.00 | 70 | 1016.3 |
| 20260505073030 | 10 | 20 | 4.8 | 14.5 | 0.00 | 0.00 | 0.00 | 73 | 1016.5 |
| 20260505071532 | 10 | 302 | 0.0 | 6.4 | 0.00 | 0.00 | 0.00 | 75 | 1016.5 |
| 20260505070041 | 9 | 0 | 1.6 | 4.8 | 0.00 | 0.00 | 0.00 | 76 | 1016.4 |
| 20260505064533 | 9 | 0 | 0.0 | 3.2 | 0.00 | 0.00 | 0.00 | 77 | 1016.6 |
| 20260505063030 | 9 | 340 | 0.0 | 6.4 | 0.00 | 0.00 | 0.00 | 79 | 1016.7 |
| 20260505061534 | 8 | 0 | 0.0 | 3.2 | 0.00 | 0.00 | 0.00 | 79 | 1016.6 |
| 20260505060035 | 8 | 0 | 0.0 | 3.2 | 0.00 | 0.00 | 0.00 | 79 | 1016.5 |
| 20260505054542 | 8 | 327 | 1.6 | 8.0 | 0.00 | 0.00 | 0.00 | 80 | 1016.5 |
| 20260505053033 | 8 | 0 | 0.0 | 0.0 | 0.00 | 0.00 | 0.00 | 82 | 1016.6 |
| 20260505051532 | 8 | 0 | 0.0 | 0.0 | 0.00 | 0.00 | 0.00 | 83 | 1016.4 |
| 20260505041530 | 8 | 292 | 0.0 | 3.2 | 0.00 | 0.00 | 0.00 | 80 | 1016.1 |
| 20260505040040 | 8 | 328 | 1.6 | 6.4 | 0.00 | 0.00 | 0.00 | 82 | 1016.2 |
| 20260505034538 | 8 | 302 | 0.0 | 6.4 | 0.00 | 0.00 | 0.00 | 84 | 1016.2 |
| 20260505033032 | 8 | 0 | 0.0 | 0.0 | 0.00 | 0.00 | 0.00 | 85 | 1016.3 |
| 20260505031530 | 8 | 0 | 0.0 | 0.0 | 0.00 | 0.00 | 0.00 | 85 | 1016.2 |
| 20260505030030 | 8 | 286 | 0.0 | 4.8 | 0.00 | 0.00 | 0.00 | 85 | 1016.1 |
| 20260505024529 | 8 | 0 | 3.2 | 9.7 | 0.00 | 0.00 | 0.00 | 86 | 1016.2 |
| 20260505023030 | 8 | 343 | 4.8 | 11.3 | 0.00 | 0.00 | 0.00 | 87 | 1016.2 |
| 20260505021534 | 8 | 0 | 0.0 | 4.8 | 0.00 | 0.00 | 0.00 | 90 | 1016.3 |
| 20260505020037 | 8 | 346 | 0.0 | 1.6 | 0.00 | 0.00 | 0.00 | 92 | 1016.5 |
| 20260505014530 | 8 | 0 | 0.0 | 1.6 | 0.00 | 0.00 | 0.00 | 93 | 1016.8 |
| 20260505013030 | 7 | 324 | 0.0 | 3.2 | 0.00 | 0.00 | 0.00 | 93 | 1016.8 |
| 20260505011536 | 8 | 0 | 0.0 | 1.6 | 0.00 | 0.00 | 0.00 | 92 | 1016.6 |
| 20260505010033 | 8 | 0 | 0.0 | 0.0 | 0.00 | 0.00 | 0.00 | 91 | 1016.8 |
| 20260505004530 | 8 | 0 | 0.0 | 1.6 | 0.00 | 0.00 | 0.00 | 91 | 1016.8 |
| 20260505003030 | 8 | 0 | 0.0 | 1.6 | 0.00 | 0.00 | 0.00 | 90 | 1017.0 |
| 20260505001533 | 9 | 27 | 0.0 | 9.7 | 0.00 | 0.00 | 0.00 | 90 | 1017.1 |
| 20260505000046 | 9 | 93 | 1.6 | 9.7 | 0.00 | 0.00 | 0.00 | 90 | 1017.1 |
| 20260504234536 | 10 | 76 | 4.8 | 14.5 | 0.00 | 0.00 | 0.00 | 89 | 1017.2 |
| 20260504233030 | 10 | 41 | 3.2 | 9.7 | 0.00 | 0.00 | 0.00 | 88 | 1017.0 |
| 20260504231529 | 10 | 15 | 3.2 | 9.7 | 0.00 | 0.00 | 0.00 | 88 | 1017.1 |
| 20260504230029 | 10 | 28 | 3.2 | 9.7 | 0.00 | 0.00 | 0.00 | 87 | 1017.1 |
| 20260504224536 | 10 | 350 | 3.2 | 6.4 | 0.00 | 0.00 | 0.00 | 86 | 1017.0 |
| 20260504223032 | 11 | 0 | 1.6 | 6.4 | 0.00 | 0.00 | 0.00 | 84 | 1017.1 |
| 20260504221533 | 11 | 344 | 3.2 | 9.7 | 0.00 | 0.00 | 0.00 | 85 | 1017.1 |
| 20260504220043 | 11 | 0 | 0.0 | 6.4 | 0.00 | 0.00 | 0.00 | 85 | 1017.3 |
| 20260504214536 | 11 | 360 | 1.6 | 6.4 | 0.00 | 0.00 | 0.00 | 84 | 1017.2 |
| 20260504213044 | 11 | 22 | 0.0 | 6.4 | 0.00 | 0.00 | 0.00 | 84 | 1017.2 |
| 20260504211538 | 11 | 26 | 1.6 | 4.8 | 0.00 | 0.00 | 0.00 | 84 | 1017.2 |
| 20260504210034 | 11 | 52 | 0.0 | 6.4 | 0.00 | 0.00 | 0.00 | 84 | 1017.2 |
| 20260504204538 | 12 | 115 | 1.6 | 8.0 | 0.00 | 0.00 | 0.00 | 83 | 1017.2 |
| 20260504203030 | 12 | 127 | 1.6 | 6.4 | 0.00 | 0.00 | 0.00 | 83 | 1017.1 |
| 20260504201530 | 12 | 38 | 1.6 | 8.0 | 0.00 | 0.00 | 0.00 | 83 | 1017.0 |
| 20260504200030 | 12 | 42 | 1.6 | 9.7 | 0.00 | 0.00 | 0.00 | 83 | 1016.8 |
| 20260504194530 | 12 | 20 | 3.2 | 12.9 | 0.00 | 0.00 | 0.00 | 83 | 1016.6 |
| 20260504193031 | 12 | 307 | 1.6 | 6.4 | 0.00 | 0.00 | 0.00 | 81 | 1016.4 |
| 20260504191535 | 12 | 0 | 0.0 | 4.8 | 0.00 | 0.00 | 0.00 | 81 | 1016.3 |
| 20260504190034 | 12 | 76 | 0.0 | 6.4 | 0.00 | 0.00 | 0.00 | 80 | 1016.3 |